FENGYUN 1C DEB

Satellite information

Favourite Embed

Satellite Type and Status

DEBRISIN ORBIT

Key statistics

Satellite FENGYUN 1C DEB at a glance.

Uptime

9715

Days in orbit

Revolutions

≈ 14.0

Per day

Orbit

SSO

Sun Synchronous Orbit

Inclination

98.7

Latest

Satellite identification and parameters

Extended collection of information and parameters for FENGYUN 1C DEB.

Object identification

Identified? True

Debris? True

Object name: FENGYUN 1C DEB

International designator: 1999-025ANC

Object number (NORAD): 30621

Object ID (CCSDS): 30621

Country: PEOPLES REPUBLIC OF CHINA (PRC)

Current information (Y/N): Y

RCS size: SMALL

Orbital parameters

Period: 102.578 minutes

Inclination: 98.6967 deg

SMA: 7258.783 km

Apoapsis: 980.706 km

Periapsis: 780.589 km

RAAN: 288.82 deg

Eccentricy: 0.01378447

Argument of periapsis: 310.6567 deg

Mean anomaly: 201.7963 deg

Mean motion: 14.03805919 rev/day

Mean motion (dot): 0.00008157 rev/day2

B* drag term: 0.0047795411 1/REarth

Two-line elements (TLE)

Creation date: Dec. 11, 2025, 7:14 p.m.

Reference frame: TEME

Reference center: EARTH

Epoch: Dec. 11, 2025, 8:07 a.m. UTC

TLE line 0: 0 FENGYUN 1C DEB

TLE line 1: 1 30621U 99025ANC 25345.33824289 .00008157 00000-0 47795-2 0 9990

TLE line 2: 2 30621 98.6967 288.8200 0137845 310.6567 201.7963 14.03805919955707

Live tracking on map

Real-time ground track for satellite FENGYUN 1C DEB.

In-orbit conjunctions

A list of the most updated potential collisions computed for object FENGYUN 1C DEB.

Target Orbit TCA Probability of collision Miss distance Type
SAPPHIRE LEO 2025-09-21 16:45:26 0.0004763721 550.0 (m) PAYLOAD
COSMOS 1452 LEO 2025-08-25 07:51:04 0.0002662001 137.0 (m) PAYLOAD
CZ-6A R/B LEO 2024-08-21 00:55:58 0.0001880156 973.0 (m) ROCKET BODY
COSMOS 465 LEO 2024-08-01 07:25:05 0.0001730723 274.0 (m) PAYLOAD

Associated space launch

Chinese polar orbiting meteorological satellite

FENGYUN 1C DEB was lifted into orbit during the mission ‘Long March 4B | Feng Yun 1C’, on board a Long March 4B space rocket.

The launch took place on May 10, 1999, 1:33 a.m. from Launch Complex 7.

For more information about the launch, click the button.

Launch to space Long March 4B | Feng Yun 1C
Long March 4B | Feng Yun 1C

Agency: N/A

Status: Launch Successful

Launch date: May 10, 1999, 1:33 a.m. UTC

Rocket: Long March 4B

Launch pad: Launch Complex 7

Location: Taiyuan Satellite Launch Center, People's Republic of China

...

Latest news about this satellite

There are no fresh news available about this satellite. Check back as we update our databases every day.


Newsletter sign-up

Weekly statistics, charts and insights to help you stay on top of the space industry.